Location: Hilton Head Island
(32.2163°N, 80.7526°W)
Time: 21:53:29
(UTC-04:00)

Vanguard 2 Rocket - Pass Details

Date: 19 February 2026
Orbit: 553 x 3286 km, 32.9° (Epoch: 10 March)

Event Time Altitude Azimuth Distance (km) Brightness Sun altitude
Rises 16:02:07 0° 278° (W) 6,875 12.1 24.6°
Reaches altitude 10° 16:07:12 10° 279° (W) 5,554 11.8 23.7°
Maximum altitude 16:22:40 86° 193° (SSW) 1,844 8.9 20.9°
Drops below altitude 10° 16:31:10 10° 105° (ESE) 3,233 9.4 19.3°
Sets 16:33:22 0° 105° (ESE) 3,939 9.7 18.9°
